Seattle Boeing, WA

10:35 AM PDT on June 22, 2018 (GMT -0700)
Boeing Field-King County International

Weather History for KBFI - June, 2018

Change the Weather History Date:

Thursday, June 14, 2018

  Actual Average Record
Temperature  
Mean Temperature 60 °F -  
Max Temperature 66 °F 69 °F 86 °F (1988)
Min Temperature 54 °F 52 °F 43 °F (1955)
Degree Days  
Heating Degree Days 5    
Growing Degree Days 10 (Base 50)    
Moisture  
Dew Point 47 °F    
Average Humidity 64    
Maximum Humidity 77    
Minimum Humidity 48    
Precipitation  
Precipitation 0.00 in - - ()
Sea Level Pressure  
Sea Level Pressure 30.06 in    
Wind  
Wind Speed 5 mph (South)    
Max Wind Speed 9 mph    
Max Gust Speed -    
Visibility 10 miles    
Events      
Averages and records for this station are not official NWS values.
T = Trace of Precipitation, MM = Missing Value Source: NWS Daily Summary

Daily Weather History Graph

Daily Weather History Graph

Search for Another Location

Airport or City:

Astronomy

Jun. 14, 2018 Rise Set
Actual Time 5:11 AM PDT 9:08 PM PDT
Civil Twilight 4:30 AM PDT 9:48 PM PDT
Nautical Twilight 3:35 AM PDT 10:44 PM PDT
Astronomical Twilight 2:07 AM PDT 12:12 AM PDT
Moon 6:18 AM PDT (6/14) 10:10 PM PDT (6/14)
Length of Visible Light 17h 17m
Length of Day
15h 56m
New Moon, 1% of the Moon is Illuminated
Jun 14
New Moon
Jun 20
First Quarter
Jun 27
Full
Jul 6
Last Quarter
Jul 12
New

Hourly Weather History & Observations

Time (PDT) Temp. Dew Point Humidity Pressure Visibility Wind Dir Wind Speed Gust Speed Precip Events Conditions
12:53 AM 55.0 °F 46.9 °F 74% 30.03 in 10.0 mi SSE 4.6 mph - N/A   Mostly Cloudy
1:53 AM 54.0 °F 46.9 °F 77% 30.03 in 10.0 mi SSE 5.8 mph - N/A   Mostly Cloudy
2:53 AM 55.0 °F 46.9 °F 74% 30.04 in 10.0 mi South 9.2 mph - N/A   Overcast
3:53 AM 55.0 °F 46.0 °F 72% 30.04 in 10.0 mi South 6.9 mph - N/A   Overcast
4:53 AM 55.0 °F 46.0 °F 72% 30.06 in 10.0 mi South 4.6 mph - N/A   Overcast
5:53 AM 55.0 °F 46.9 °F 74% 30.07 in 10.0 mi Variable 5.8 mph - N/A   Overcast
6:32 AM 55.0 °F 46.0 °F 72% 30.07 in 10.0 mi SSE 6.9 mph - N/A   Overcast
6:53 AM 55.9 °F 46.9 °F 72% 30.08 in 10.0 mi SE 5.8 mph - N/A   Overcast
7:53 AM 57.0 °F 46.9 °F 69% 30.09 in 10.0 mi SSE 8.1 mph - N/A   Overcast
8:16 AM 57.0 °F 46.9 °F 69% 30.09 in 10.0 mi SSE 8.1 mph - N/A   Overcast
8:27 AM 57.9 °F 46.0 °F 65% 30.09 in 10.0 mi SE 5.8 mph - N/A   Overcast
8:53 AM 57.9 °F 46.9 °F 67% 30.10 in 10.0 mi SSE 9.2 mph - N/A   Overcast
9:53 AM 57.9 °F 46.0 °F 65% 30.10 in 10.0 mi Variable 5.8 mph - N/A   Overcast
10:53 AM 57.9 °F 48.0 °F 70% 30.10 in 10.0 mi SW 8.1 mph - N/A   Mostly Cloudy
11:53 AM 61.0 °F 46.9 °F 60% 30.10 in 10.0 mi SSW 6.9 mph - N/A   Overcast
12:53 PM 61.0 °F 46.0 °F 58% 30.10 in 10.0 mi Calm Calm - N/A   Mostly Cloudy
1:53 PM 64.0 °F 46.9 °F 54% 30.09 in 10.0 mi Calm Calm - N/A   Mostly Cloudy
2:53 PM 66.0 °F 48.0 °F 52% 30.08 in 10.0 mi Variable 5.8 mph - N/A   Mostly Cloudy
3:53 PM 64.9 °F 45.0 °F 48% 30.06 in 10.0 mi Variable 5.8 mph - N/A   Mostly Cloudy
4:53 PM 64.9 °F 46.0 °F 50% 30.05 in 10.0 mi SSE 3.5 mph - N/A   Mostly Cloudy
5:53 PM 64.9 °F 45.0 °F 48% 30.04 in 10.0 mi Calm Calm - N/A   Overcast
6:53 PM 64.0 °F 46.0 °F 52% 30.03 in 10.0 mi West 5.8 mph - N/A   Overcast
7:53 PM 63.0 °F 46.0 °F 54% 30.02 in 10.0 mi Calm Calm - N/A   Mostly Cloudy
8:53 PM 62.1 °F 46.0 °F 56% 30.02 in 10.0 mi Variable 3.5 mph - N/A   Clear
9:53 PM 59.0 °F 48.0 °F 67% 30.02 in 10.0 mi NW 3.5 mph - N/A   Partly Cloudy
10:53 PM 57.9 °F 48.0 °F 70% 30.01 in 10.0 mi Calm Calm - N/A   Partly Cloudy
11:53 PM 57.0 °F 48.0 °F 72% 30.01 in 10.0 mi Calm Calm - N/A   Partly Cloudy